Sierra Vista, AZ

11:34 PM MST on March 23, 2017 (GMT -0700)
Sierra Vista Municipal-Libby Army Air Field

Weather History for KFHU - November, 2014

Change the Weather History Date:

Thursday, November 27, 2014

  Actual Average Record
Temperature  
Mean Temperature 60 °F -  
Max Temperature 73 °F 62 °F 76 °F (1991)
Min Temperature 46 °F 40 °F 22 °F (1984)
Degree Days  
Heating Degree Days 6    
Growing Degree Days 10 (Base 50)    
Moisture  
Dew Point 19 °F    
Average Humidity 24    
Maximum Humidity 34    
Minimum Humidity 12    
Precipitation  
Precipitation 0.00 in - - ()
Sea Level Pressure  
Sea Level Pressure 30.20 in    
Wind  
Wind Speed 5 mph (SE)    
Max Wind Speed 13 mph    
Max Gust Speed -    
Visibility 10 miles    
Events      
Averages and records for this station are not official NWS values.
T = Trace of Precipitation, MM = Missing Value Source: NWS Daily Summary

Daily Weather History Graph

Daily Weather History Graph

Search for Another Location

Airport or City:

Trip Planner

Search our weather history database for the weather conditions in past years. The results will help you decide how hot, cold, wet, or windy it might be!

Date:

Astronomy

Nov. 27, 2014 Rise Set
Actual Time 6:59 AM MST 5:18 PM MST
Civil Twilight 6:33 AM MST 5:44 PM MST
Nautical Twilight 6:03 AM MST 6:14 PM MST
Astronomical Twilight 5:34 AM MST 6:43 PM MST
Moon 11:25 AM MST (11/27) 10:52 PM MST (11/27)
Length of Visible Light 11h 11m
Length of Day
10h 18m
Waxing Crescent, 32% of the Moon is Illuminated
Nov 27
Waxing Crescent
Nov 29
First Quarter
Dec 6
Full
Dec 14
Last Quarter
Dec 21
New

Hourly Weather History & Observations

Time (MST) Temp. Dew Point Humidity Pressure Visibility Wind Dir Wind Speed Gust Speed Precip Events Conditions
12:56 AM 48.0 °F 18.0 °F 30% 30.22 in 10.0 mi Calm Calm - N/A   Clear
1:56 AM 48.0 °F 19.9 °F 33% 30.23 in 10.0 mi SE 4.6 mph - N/A   Clear
2:56 AM 50.0 °F 21.0 °F 32% 30.22 in 10.0 mi SSE 4.6 mph - N/A   Clear
3:56 AM 48.0 °F 21.0 °F 34% 30.21 in 10.0 mi SSE 8.1 mph - N/A   Clear
4:56 AM 50.0 °F 19.9 °F 31% 30.21 in 10.0 mi SE 6.9 mph - N/A   Clear
5:56 AM 50.0 °F 19.0 °F 29% 30.26 in 10.0 mi NE 4.6 mph - N/A   Clear
6:56 AM 46.9 °F 19.0 °F 33% 30.28 in 10.0 mi NNE 3.5 mph - N/A   Clear
7:56 AM 50.0 °F 21.0 °F 32% 30.30 in 10.0 mi SSE 5.8 mph - N/A   Clear
8:56 AM 59.0 °F 21.0 °F 23% 30.27 in 10.0 mi East 6.9 mph - N/A   Clear
9:56 AM 64.0 °F 19.9 °F 18% 30.27 in 10.0 mi ESE 6.9 mph - N/A   Clear
10:56 AM 68.0 °F 19.0 °F 15% 30.25 in 10.0 mi SE 11.5 mph - N/A   Clear
11:56 AM 70.0 °F 19.0 °F 14% 30.21 in 10.0 mi ESE 8.1 mph - N/A   Clear
12:56 PM 71.1 °F 18.0 °F 13% 30.17 in 10.0 mi Variable 3.5 mph - N/A   Clear
1:56 PM 73.0 °F 17.1 °F 12% 30.14 in 10.0 mi SE 9.2 mph - N/A   Clear
2:56 PM 73.0 °F 17.1 °F 12% 30.13 in 10.0 mi SE 5.8 mph - N/A   Clear
3:56 PM 72.0 °F 16.0 °F 12% 30.14 in 10.0 mi East 8.1 mph - N/A   Clear
4:56 PM 66.9 °F 17.1 °F 15% 30.14 in 10.0 mi ESE 8.1 mph - N/A   Clear
5:56 PM 55.9 °F 19.0 °F 24% 30.17 in 10.0 mi South 5.8 mph - N/A   Clear
6:56 PM 59.0 °F 19.0 °F 21% 30.18 in 10.0 mi South 10.4 mph - N/A   Clear
7:56 PM 54.0 °F 19.0 °F 25% 30.20 in 10.0 mi Calm Calm - N/A   Clear
8:56 PM 51.1 °F 19.9 °F 29% 30.19 in 10.0 mi ESE 3.5 mph - N/A   Clear
9:56 PM 53.1 °F 19.9 °F 27% 30.16 in 10.0 mi SSE 9.2 mph - N/A   Clear
10:56 PM 53.1 °F 19.0 °F 26% 30.14 in 10.0 mi South 12.7 mph - N/A   Clear
11:56 PM 53.1 °F 19.0 °F 26% 30.12 in 10.0 mi South 11.5 mph - N/A   Clear